Total_Precipitation_Accumulation
0.00 0.00 0.00 0.00 0.00 0.00 0.00 0.00 0.00 0.00 0.00 0.00 0.02 0.01 0.02 0.07 0.04 0.07 0.10 0.09 0.05 0.07 0.05 0.04 0.01 0.02 0.14 0.21 0.28 0.24 0.30 0.31 0.18 0.17 0.21 0.23 0.19 0.16 0.06 0.13 0.24 0.28 0.12
0.00 0.00 0.00 0.00 0.00 0.00 0.00 0.00 0.00 0.00 0.00 0.00 0.00 0.00 0.02 0.01 0.01 0.06 0.06 0.04 0.07 0.04 0.04 0.04 0.06 0.11 0.11 0.19 0.21 0.19 0.24 0.32 0.27 0.11 0.21 0.28 0.21 0.22 0.31 0.17 0.14 0.17 0.08
0.00 0.00 0.00 0.00 0.00 0.00 0.00 0.00 0.00 0.00 0.00 0.00 0.00 0.00 0.01 0.00 0.02 0.05 0.06 0.08 0.06 0.05 0.03 0.02 0.04 0.06 0.04 0.06 0.05 0.03 0.03 0.06 0.07 0.06 0.02 0.09 0.18 0.25 0.24 0.18 0.10 0.02 0.05
0.00 0.00 0.00 0.00 0.00 0.00 0.00 0.00 0.00 0.00 0.00 0.00 0.00 0.00 0.00 0.01 0.02 0.04 0.04 0.03 0.02 0.01 0.01 0.01 0.02 0.01 0.01 0.02 0.02 0.02 0.03 0.02 0.01 0.02 0.02 0.01 0.07 0.20 0.29 0.27 0.27 0.17 0.09
0.00 0.00 0.00 0.00 0.00 0.00 0.00 0.00 0.00 0.00 0.00 0.00 0.00 0.00 0.00 0.00 0.01 0.02 0.02 0.01 0.01 0.01 0.01 0.01 0.01 0.00 0.00 0.00 0.00 0.01 0.01 0.01 0.00 0.01 0.01 0.03 0.06 0.08 0.10 0.20 0.22 0.26 0.26
0.00 0.00 0.00 0.00 0.00 0.00 0.00 0.00 0.00 0.00 0.00 0.00 0.00 0.00 0.01 0.00 0.00 0.00 0.01 0.01 0.02 0.02 0.01 0.01 0.01 0.00 0.00 0.00 0.00 0.00 0.00 0.00 0.00 0.00 0.01 0.01 0.00 0.01 0.04 0.10 0.13 0.17 0.14
0.00 0.00 0.00 0.00 0.00 0.00 0.00 0.00 0.00 0.00 0.00 0.00 0.00 0.01 0.01 0.01 0.00 0.00 0.00 0.01 0.01 0.01 0.01 0.01 0.00 0.00 0.00 0.00 0.00 0.00 0.00 0.00 0.00 0.00 0.01 0.01 0.02 0.05 0.05 0.06 0.08 0.10 0.10
0.00 0.00 0.00 0.00 0.00 0.00 0.00 0.00 0.00 0.00 0.00 0.00 0.00 0.00 0.00 0.00 0.00 0.00 0.00 0.00 0.01 0.01 0.01 0.00 0.00 0.00 0.00 0.00 0.00 0.00 0.00 0.00 0.00 0.00 0.00 0.00 0.01 0.03 0.05 0.07 0.06 0.07 0.09
0.00 0.00 0.00 0.00 0.00 0.00 0.00 0.00 0.00 0.00 0.00 0.00 0.00 0.00 0.00 0.00 0.00 0.00 0.00 0.00 0.00 0.01 0.01 0.00 0.00 0.00 0.00 0.00 0.00 0.01 0.02 0.00 0.00 0.00 0.00 0.00 0.00 0.00 0.01 0.03 0.05 0.06 0.04
0.00 0.00 0.00 0.00 0.00 0.00 0.00 0.00 0.00 0.00 0.00 0.00 0.00 0.00 0.00 0.00 0.00 0.00 0.00 0.00 0.00 0.00 0.00 0.00 0.00 0.00 0.01 0.01 0.05 0.11 0.07 0.03 0.06 0.05 0.01 0.00 0.00 0.00 0.00 0.01 0.02 0.04 0.04
0.00 0.00 0.00 0.01 0.00 0.00 0.00 0.00 0.00 0.00 0.00 0.00 0.01 0.01 0.01 0.00 0.00 0.00 0.00 0.00 0.00 0.04 0.04 0.06 0.11 0.14 0.13 0.03 0.09 0.12 0.12 0.15 0.16 0.07 0.02 0.01 0.00 0.01 0.01 0.01 0.01 0.05 0.08
0.00 0.00 0.00 0.04 0.08 0.09 0.10 0.08 0.06 0.03 0.04 0.06 0.08 0.06 0.04 0.10 0.03 0.01 0.00 0.00 0.01 0.05 0.05 0.13 0.13 0.03 0.02 0.03 0.02 0.03 0.13 0.12 0.05 0.00 0.03 0.02 0.00 0.00 0.00 0.04 0.07 0.11 0.12
0.00 0.00 0.00 0.04 0.17 0.25 0.28 0.31 0.36 0.34 0.28 0.25 0.24 0.26 0.30 0.28 0.17 0.02 0.00 0.00 0.00 0.01 0.06 0.12 0.10 0.07 0.05 0.03 0.00 0.00 0.01 0.01 0.00 0.03 0.06 0.06 0.01 0.01 0.05 0.05 0.11 0.30 0.33
0.00 0.00 0.04 0.21 0.26 0.49 0.62 0.79 0.81 0.72 0.55 0.47 0.40 0.44 0.41 0.41 0.35 0.19 0.06 0.01 0.00 0.00 0.00 0.02 0.01 0.00 0.00 0.01 0.02 0.01 0.00 0.00 0.00 0.02 0.09 0.08 0.07 0.06 0.08 0.10 0.11 0.20 0.17
0.01 0.02 0.13 0.27 0.31 0.34 0.73 1.08 1.16 1.26 1.26 1.10 1.08 1.03 0.97 0.55 0.27 0.15 0.06 0.01 0.02 0.01 0.01 0.03 0.03 0.03 0.04 0.06 0.08 0.09 0.09 0.07 0.06 0.06 0.07 0.09 0.08 0.07 0.06 0.08 0.05 0.05 0.06
0.04 0.19 0.21 0.16 0.17 0.24 0.49 0.58 0.55 0.48 0.40 0.29 0.31 0.33 0.31 0.24 0.16 0.10 0.03 0.00 0.00 0.00 0.00 0.01 0.02 0.02 0.05 0.08 0.12 0.13 0.14 0.17 0.13 0.10 0.09 0.12 0.12 0.08 0.07 0.07 0.08 0.10 0.08
0.35 0.45 0.39 0.32 0.39 0.33 0.28 0.32 0.17 0.15 0.15 0.16 0.18 0.24 0.24 0.12 0.05 0.03 0.01 0.00 0.00 0.00 0.01 0.02 0.02 0.02 0.05 0.05 0.04 0.04 0.07 0.10 0.14 0.15 0.13 0.12 0.15 0.12 0.10 0.08 0.06 0.08 0.21
0.49 0.62 0.43 0.37 0.35 0.33 0.28 0.29 0.21 0.16 0.12 0.11 0.10 0.09 0.09 0.02 0.00 0.00 0.00 0.00 0.00 0.00 0.00 0.00 0.00 0.00 0.00 0.01 0.01 0.01 0.01 0.01 0.02 0.07 0.10 0.11 0.13 0.12 0.12 0.12 0.09 0.06 0.13
0.34 0.43 0.31 0.42 0.35 0.26 0.19 0.16 0.16 0.12 0.09 0.08 0.05 0.02 0.00 0.00 0.00 0.00 0.00 0.00 0.00 0.00 0.00 0.00 0.00 0.00 0.01 0.01 0.02 0.01 0.01 0.00 0.01 0.04 0.05 0.05 0.07 0.04 0.05 0.05 0.06 0.06 0.06
0.31 0.28 0.13 0.12 0.23 0.26 0.25 0.21 0.18 0.10 0.01 0.00 0.00 0.00 0.00 0.00 0.00 0.00 0.00 0.00 0.00 0.00 0.00 0.00 0.00 0.00 0.01 0.01 0.01 0.01 0.01 0.02 0.03 0.03 0.03 0.02 0.01 0.01 0.01 0.02 0.02 0.03 0.03
0.18 0.21 0.08 0.05 0.05 0.06 0.07 0.07 0.06 0.01 0.01 0.00 0.00 0.00 0.00 0.00 0.00 0.00 0.00 0.00 0.00 0.00 0.00 0.00 0.00 0.00 0.00 0.01 0.01 0.01 0.00 0.01 0.01 0.01 0.00 0.01 0.01 0.01 0.02 0.04 0.05 0.07 0.05
0.13 0.09 0.04 0.04 0.01 0.00 0.00 0.00 0.00 0.00 0.00 0.00 0.00 0.00 0.00 0.00 0.00 0.00 0.00 0.00 0.00 0.00 0.00 0.01 0.01 0.00 0.00 0.00 0.00 0.00 0.00 0.00 0.00 0.00 0.00 0.00 0.00 0.00 0.00 0.01 0.02 0.02 0.01
0.19 0.28 0.16 0.12 0.00 0.02 0.03 0.03 0.02 0.01 0.00 0.00 0.00 0.00 0.00 0.00 0.00 0.00 0.00 0.00 0.00 0.00 0.00 0.00 0.01 0.00 0.00 0.00 0.00 0.00 0.00 0.00 0.00 0.00 0.00 0.00 0.00 0.00 0.00 0.01 0.01 0.01 0.01
0.13 0.14 0.12 0.06 0.01 0.00 0.00 0.00 0.00 0.01 0.01 0.01 0.01 0.01 0.00 0.00 0.00 0.00 0.00 0.00 0.00 0.00 0.00 0.00 0.00 0.00 0.00 0.00 0.00 0.00 0.00 0.00 0.00 0.00 0.00 0.00 0.00 0.00 0.00 0.00 0.00 0.01 0.01
0.03 0.01 0.01 0.00 0.00 0.00 0.00 0.00 0.00 0.00 0.00 0.00 0.00 0.00 0.00 0.00 0.00 0.00 0.00 0.00 0.00 0.00 0.00 0.00 0.00 0.00 0.00 0.00 0.00 0.00 0.00 0.00 0.00 0.00 0.00 0.00 0.00 0.00 0.00 0.00 0.00 0.00 0.00
0.01 0.00 0.00 0.00 0.00 0.00 0.00 0.00 0.00 0.00 0.00 0.00 0.00 0.00 0.00 0.00 0.00 0.00 0.00 0.00 0.00 0.00 0.00 0.00 0.00 0.00 0.00 0.00 0.00 0.00 0.00 0.00 0.00 0.00 0.00 0.00 0.00 0.00 0.00 0.00 0.00 0.00 0.01